"Time","Value","Approval","myLocation"
"2023-05-07 00:00",18.6824105263158,"Approved","OW008"
"2023-05-07 01:00",18.6814123839009,"Approved","OW008"
"2023-05-07 02:00",18.6804142414861,"Approved","OW008"
"2023-05-07 03:00",18.6804160990712,"Approved","OW008"
"2023-05-07 04:00",18.6814179566563,"Approved","OW008"
"2023-05-07 05:00",18.6794198142415,"Approved","OW008"
"2023-05-07 06:00",18.6794216718266,"Approved","OW008"
"2023-05-07 07:00",18.6804235294118,"Approved","OW008"
"2023-05-07 08:00",18.6794253869969,"Approved","OW008"
"2023-05-07 09:00",18.680427244582,"Approved","OW008"
"2023-05-07 10:00",18.6814291021672,"Approved","OW008"
"2023-05-07 11:00",18.6814309597523,"Approved","OW008"
"2023-05-07 12:00",18.6814328173375,"Approved","OW008"
"2023-05-07 13:00",18.6814346749226,"Approved","OW008"
"2023-05-07 14:00",18.6844365325077,"Approved","OW008"
"2023-05-07 15:00",18.6864383900929,"Approved","OW008"
"2023-05-07 16:00",18.685440247678,"Approved","OW008"
"2023-05-07 17:00",18.6854421052632,"Approved","OW008"
"2023-05-07 18:00",18.6844439628483,"Approved","OW008"
"2023-05-07 19:00",18.6844458204334,"Approved","OW008"
"2023-05-07 20:00",18.6814476780186,"Approved","OW008"
"2023-05-07 21:00",18.6834495356037,"Approved","OW008"
"2023-05-07 22:00",18.6834513931889,"Approved","OW008"
"2023-05-07 23:00",18.680453250774,"Approved","OW008"
"2023-05-08 00:00",18.6774551083591,"Approved","OW008"
"2023-05-08 01:00",18.6774569659443,"Approved","OW008"
"2023-05-08 02:00",18.6774588235294,"Approved","OW008"
"2023-05-08 03:00",18.6794606811145,"Approved","OW008"
"2023-05-08 04:00",18.6834625386997,"Approved","OW008"
"2023-05-08 05:00",18.6844643962848,"Approved","OW008"
"2023-05-08 06:00",18.68346625387,"Approved","OW008"
"2023-05-08 07:00",18.6814681114551,"Approved","OW008"
"2023-05-08 08:00",18.6794699690402,"Approved","OW008"
"2023-05-08 09:00",18.6794718266254,"Approved","OW008"
"2023-05-08 10:00",18.6794736842105,"Approved","OW008"
"2023-05-08 11:00",18.6794755417957,"Approved","OW008"
"2023-05-08 12:00",18.6784773993808,"Approved","OW008"
"2023-05-08 13:00",18.6814792569659,"Approved","OW008"
"2023-05-08 14:00",18.6824811145511,"Approved","OW008"
"2023-05-08 15:00",18.6824829721362,"Approved","OW008"
"2023-05-08 16:00",18.6814848297214,"Approved","OW008"
"2023-05-08 17:00",18.6794866873065,"Approved","OW008"
"2023-05-08 18:00",18.6764885448916,"Approved","OW008"
"2023-05-08 19:00",18.6784904024768,"Approved","OW008"
"2023-05-08 20:00",18.6794922600619,"Approved","OW008"
"2023-05-08 21:00",18.6784941176471,"Approved","OW008"
"2023-05-08 22:00",18.6794959752322,"Approved","OW008"
"2023-05-08 23:00",18.6794978328173,"Approved","OW008"
"2023-05-09 00:00",18.6804996904025,"Approved","OW008"
"2023-05-09 01:00",18.6815015479876,"Approved","OW008"
"2023-05-09 02:00",18.6845034055728,"Approved","OW008"
"2023-05-09 03:00",18.6875052631579,"Approved","OW008"
"2023-05-09 04:00",18.690507120743,"Approved","OW008"
"2023-05-09 05:00",18.6915089783282,"Approved","OW008"
"2023-05-09 06:00",18.6925108359133,"Approved","OW008"
"2023-05-09 07:00",18.6905126934985,"Approved","OW008"
"2023-05-09 08:00",18.6895145510836,"Approved","OW008"
"2023-05-09 09:00",18.6915164086687,"Approved","OW008"
"2023-05-09 10:00",18.6945182662539,"Approved","OW008"
"2023-05-09 11:00",18.697520123839,"Approved","OW008"
"2023-05-09 12:00",18.6965219814242,"Approved","OW008"
"2023-05-09 13:00",18.6965238390093,"Approved","OW008"
"2023-05-09 14:00",18.6965256965944,"Approved","OW008"
"2023-05-09 15:00",18.7005275541796,"Approved","OW008"
"2023-05-09 16:00",18.6945294117647,"Approved","OW008"
"2023-05-09 17:00",18.6925312693498,"Approved","OW008"
"2023-05-09 18:00",18.690533126935,"Approved","OW008"
"2023-05-09 19:00",18.6905349845201,"Approved","OW008"
"2023-05-09 20:00",18.6875368421053,"Approved","OW008"
"2023-05-09 21:00",18.6855386996904,"Approved","OW008"
"2023-05-09 22:00",18.6845405572755,"Approved","OW008"
"2023-05-09 23:00",18.6825424148607,"Approved","OW008"
"2023-05-10 00:00",18.6825442724458,"Approved","OW008"
"2023-05-10 01:00",18.684546130031,"Approved","OW008"
"2023-05-10 02:00",18.6855479876161,"Approved","OW008"
"2023-05-10 03:00",18.6895498452012,"Approved","OW008"
"2023-05-10 04:00",18.6935517027864,"Approved","OW008"
"2023-05-10 05:00",18.6935535603715,"Approved","OW008"
"2023-05-10 06:00",18.6935554179567,"Approved","OW008"
"2023-05-10 07:00",18.6915572755418,"Approved","OW008"
"2023-05-10 08:00",18.6915591331269,"Approved","OW008"
"2023-05-10 09:00",18.6905609907121,"Approved","OW008"
"2023-05-10 10:00",18.6885628482972,"Approved","OW008"
"2023-05-10 11:00",18.6905647058824,"Approved","OW008"
"2023-05-10 12:00",18.6915665634675,"Approved","OW008"
"2023-05-10 13:00",18.6915684210526,"Approved","OW008"
"2023-05-10 14:00",18.6905702786378,"Approved","OW008"
"2023-05-10 15:00",18.6915721362229,"Approved","OW008"
"2023-05-10 16:00",18.691573993808,"Approved","OW008"
"2023-05-10 17:00",18.6905758513932,"Approved","OW008"
"2023-05-10 18:00",18.6885777089783,"Approved","OW008"
"2023-05-10 19:00",18.6885795665635,"Approved","OW008"
"2023-05-10 20:00",18.6855814241486,"Approved","OW008"
"2023-05-10 21:00",18.6845832817337,"Approved","OW008"
"2023-05-10 22:00",18.6865851393189,"Approved","OW008"
"2023-05-10 23:00",18.686586996904,"Approved","OW008"
"2023-05-11 00:00",18.6885888544892,"Approved","OW008"
"2023-05-11 01:00",18.6885907120743,"Approved","OW008"
"2023-05-11 02:00",18.6895925696594,"Approved","OW008"
"2023-05-11 03:00",18.6915944272446,"Approved","OW008"
"2023-05-11 04:00",18.6965962848297,"Approved","OW008"
"2023-05-11 05:00",18.7045981424149,"Approved","OW008"
"2023-05-11 06:00",18.7046,"Approved","OW008"
"2023-05-11 07:00",18.7026018575851,"Approved","OW008"
"2023-05-11 08:00",18.7016037151703,"Approved","OW008"
"2023-05-11 09:00",18.7026055727554,"Approved","OW008"
"2023-05-11 10:00",18.7016074303406,"Approved","OW008"
"2023-05-11 11:00",18.7026092879257,"Approved","OW008"
"2023-05-11 12:00",18.7026111455108,"Approved","OW008"
"2023-05-11 13:00",18.704613003096,"Approved","OW008"
"2023-05-11 14:00",18.7046148606811,"Approved","OW008"
"2023-05-11 15:00",18.7056167182663,"Approved","OW008"
"2023-05-11 16:00",18.7056185758514,"Approved","OW008"
"2023-05-11 17:00",18.7036204334365,"Approved","OW008"
"2023-05-11 18:00",18.7016222910217,"Approved","OW008"
"2023-05-11 19:00",18.6976241486068,"Approved","OW008"
"2023-05-11 20:00",18.696626006192,"Approved","OW008"
"2023-05-11 21:00",18.6986278637771,"Approved","OW008"
"2023-05-11 22:00",18.6956297213622,"Approved","OW008"
"2023-05-11 23:00",18.6936315789474,"Approved","OW008"
"2023-05-12 00:00",18.6926334365325,"Approved","OW008"
"2023-05-12 01:00",18.6946352941176,"Approved","OW008"
"2023-05-12 02:00",18.6946371517028,"Approved","OW008"
"2023-05-12 03:00",18.6976390092879,"Approved","OW008"
"2023-05-12 04:00",18.7006408668731,"Approved","OW008"
"2023-05-12 05:00",18.7066427244582,"Approved","OW008"
"2023-05-12 06:00",18.7086445820433,"Approved","OW008"
"2023-05-12 07:00",18.7106464396285,"Approved","OW008"
"2023-05-12 08:00",18.7096482972136,"Approved","OW008"
"2023-05-12 09:00",18.7116501547988,"Approved","OW008"
"2023-05-12 10:00",18.7106520123839,"Approved","OW008"
"2023-05-12 11:00",18.708653869969,"Approved","OW008"
"2023-05-12 12:00",18.7086557275542,"Approved","OW008"
"2023-05-12 13:00",18.7086575851393,"Approved","OW008"
"2023-05-12 14:00",18.7096594427245,"Approved","OW008"
"2023-05-12 15:00",18.7106613003096,"Approved","OW008"
"2023-05-12 16:00",18.7116631578947,"Approved","OW008"
"2023-05-12 17:00",18.7086650154799,"Approved","OW008"
"2023-05-12 18:00",18.708666873065,"Approved","OW008"
"2023-05-12 19:00",18.7066687306502,"Approved","OW008"
"2023-05-12 20:00",18.7046705882353,"Approved","OW008"
"2023-05-12 21:00",18.7026724458204,"Approved","OW008"
"2023-05-12 22:00",18.7016743034056,"Approved","OW008"
"2023-05-12 23:00",18.7026761609907,"Approved","OW008"
"2023-05-13 00:00",18.7006780185759,"Approved","OW008"
"2023-05-13 01:00",18.702679876161,"Approved","OW008"
"2023-05-13 02:00",18.7026817337461,"Approved","OW008"
"2023-05-13 03:00",18.7056835913313,"Approved","OW008"
"2023-05-13 04:00",18.7086854489164,"Approved","OW008"
"2023-05-13 05:00",18.7136873065015,"Approved","OW008"
"2023-05-13 06:00",18.7146891640867,"Approved","OW008"
"2023-05-13 07:00",18.7146910216718,"Approved","OW008"
"2023-05-13 08:00",18.714692879257,"Approved","OW008"
"2023-05-13 09:00",18.7146947368421,"Approved","OW008"
"2023-05-13 10:00",18.7146965944272,"Approved","OW008"
"2023-05-13 11:00",18.7146984520124,"Approved","OW008"
"2023-05-13 12:00",18.7157003095975,"Approved","OW008"
"2023-05-13 13:00",18.7147021671827,"Approved","OW008"
"2023-05-13 14:00",18.7167040247678,"Approved","OW008"
"2023-05-13 15:00",18.7177058823529,"Approved","OW008"
"2023-05-13 16:00",18.7167077399381,"Approved","OW008"
"2023-05-13 17:00",18.7147095975232,"Approved","OW008"
"2023-05-13 18:00",18.7137114551084,"Approved","OW008"
"2023-05-13 19:00",18.7127133126935,"Approved","OW008"
"2023-05-13 20:00",18.7117151702786,"Approved","OW008"
"2023-05-13 21:00",18.7087170278638,"Approved","OW008"
"2023-05-13 22:00",18.7077188854489,"Approved","OW008"
"2023-05-13 23:00",18.7017207430341,"Approved","OW008"
"2023-05-14 00:00",18.7017226006192,"Approved","OW008"
"2023-05-14 01:00",18.7017244582043,"Approved","OW008"
"2023-05-14 02:00",18.7067263157895,"Approved","OW008"
"2023-05-14 03:00",18.7107281733746,"Approved","OW008"
"2023-05-14 04:00",18.7167300309598,"Approved","OW008"
"2023-05-14 05:00",18.7217318885449,"Approved","OW008"
"2023-05-14 06:00",18.72373374613,"Approved","OW008"
"2023-05-14 07:00",18.7227356037152,"Approved","OW008"
"2023-05-14 08:00",18.7227374613003,"Approved","OW008"
"2023-05-14 09:00",18.7217393188854,"Approved","OW008"
"2023-05-14 10:00",18.7187411764706,"Approved","OW008"
"2023-05-14 11:00",18.7187430340557,"Approved","OW008"
"2023-05-14 12:00",18.7197448916409,"Approved","OW008"
"2023-05-14 13:00",18.718746749226,"Approved","OW008"
"2023-05-14 14:00",18.7207486068111,"Approved","OW008"
"2023-05-14 15:00",18.7227504643963,"Approved","OW008"
"2023-05-14 16:00",18.7197523219814,"Approved","OW008"
"2023-05-14 17:00",18.7167541795666,"Approved","OW008"
"2023-05-14 18:00",18.7157560371517,"Approved","OW008"
"2023-05-14 19:00",18.7117578947368,"Approved","OW008"
"2023-05-14 20:00",18.712759752322,"Approved","OW008"
"2023-05-14 21:00",18.7147616099071,"Approved","OW008"
"2023-05-14 22:00",18.7157634674923,"Approved","OW008"
"2023-05-14 23:00",18.7237653250774,"Approved","OW008"
"2023-05-15 00:00",18.7257671826625,"Approved","OW008"
"2023-05-15 01:00",18.7247690402477,"Approved","OW008"
"2023-05-15 02:00",18.7287708978328,"Approved","OW008"
"2023-05-15 03:00",18.733772755418,"Approved","OW008"
"2023-05-15 04:00",18.7367746130031,"Approved","OW008"
"2023-05-15 05:00",18.7407764705882,"Approved","OW008"
"2023-05-15 06:00",18.7397783281734,"Approved","OW008"
"2023-05-15 07:00",18.7397801857585,"Approved","OW008"
"2023-05-15 08:00",18.7377820433437,"Approved","OW008"
"2023-05-15 09:00",18.7357839009288,"Approved","OW008"
"2023-05-15 10:00",18.7347857585139,"Approved","OW008"
"2023-05-15 11:00",18.7337876160991,"Approved","OW008"
"2023-05-15 12:00",18.7327894736842,"Approved","OW008"
"2023-05-15 13:00",18.7347913312694,"Approved","OW008"
"2023-05-15 14:00",18.7397931888545,"Approved","OW008"
"2023-05-15 15:00",18.7397950464396,"Approved","OW008"
"2023-05-15 16:00",18.7417969040248,"Approved","OW008"
"2023-05-15 17:00",18.7427987616099,"Approved","OW008"
"2023-05-15 18:00",18.743800619195,"Approved","OW008"
"2023-05-15 19:00",18.7448024767802,"Approved","OW008"
"2023-05-15 20:00",18.7448043343653,"Approved","OW008"
"2023-05-15 21:00",18.7458061919505,"Approved","OW008"
"2023-05-15 22:00",18.7468080495356,"Approved","OW008"
"2023-05-15 23:00",18.7458099071207,"Approved","OW008"
"2023-05-16 00:00",18.7468117647059,"Approved","OW008"
"2023-05-16 01:00",18.750813622291,"Approved","OW008"
"2023-05-16 02:00",18.7528154798762,"Approved","OW008"
"2023-05-16 03:00",18.7588173374613,"Approved","OW008"
"2023-05-16 04:00",18.7668191950464,"Approved","OW008"
"2023-05-16 05:00",18.7718210526316,"Approved","OW008"
"2023-05-16 06:00",18.7728229102167,"Approved","OW008"
"2023-05-16 07:00",18.7808247678019,"Approved","OW008"
"2023-05-16 08:00",18.785826625387,"Approved","OW008"
"2023-05-16 09:00",18.7878284829721,"Approved","OW008"
"2023-05-16 10:00",18.7868303405573,"Approved","OW008"
"2023-05-16 11:00",18.7858321981424,"Approved","OW008"
"2023-05-16 12:00",18.7808340557276,"Approved","OW008"
"2023-05-16 13:00",18.7808359133127,"Approved","OW008"
"2023-05-16 14:00",18.7848377708978,"Approved","OW008"
"2023-05-16 15:00",18.784839628483,"Approved","OW008"
"2023-05-16 16:00",18.7838414860681,"Approved","OW008"
"2023-05-16 17:00",18.7828433436533,"Approved","OW008"
"2023-05-16 18:00",18.7808452012384,"Approved","OW008"
"2023-05-16 19:00",18.7788470588235,"Approved","OW008"
"2023-05-16 20:00",18.7758489164087,"Approved","OW008"
"2023-05-16 21:00",18.7738507739938,"Approved","OW008"
"2023-05-16 22:00",18.7718526315789,"Approved","OW008"
"2023-05-16 23:00",18.7688544891641,"Approved","OW008"
"2023-05-17 00:00",18.7698563467492,"Approved","OW008"
"2023-05-17 01:00",18.7738582043344,"Approved","OW008"
"2023-05-17 02:00",18.7798600619195,"Approved","OW008"
"2023-05-17 03:00",18.7848619195046,"Approved","OW008"
"2023-05-17 04:00",18.7838637770898,"Approved","OW008"
"2023-05-17 05:00",18.7938656346749,"Approved","OW008"
"2023-05-17 06:00",18.7888674922601,"Approved","OW008"
"2023-05-17 07:00",18.7838693498452,"Approved","OW008"
"2023-05-17 08:00",18.7908712074303,"Approved","OW008"
"2023-05-17 09:00",18.7888730650155,"Approved","OW008"
"2023-05-17 10:00",18.7888749226006,"Approved","OW008"
"2023-05-17 11:00",18.7878767801858,"Approved","OW008"
"2023-05-17 12:00",18.7898786377709,"Approved","OW008"
"2023-05-17 13:00",18.791880495356,"Approved","OW008"
"2023-05-17 14:00",18.7928823529412,"Approved","OW008"
"2023-05-17 15:00",18.7888842105263,"Approved","OW008"
"2023-05-17 16:00",18.7848860681115,"Approved","OW008"
"2023-05-17 17:00",18.7848879256966,"Approved","OW008"
"2023-05-17 18:00",18.7808897832817,"Approved","OW008"
"2023-05-17 19:00",18.7838916408669,"Approved","OW008"
"2023-05-17 20:00",18.782893498452,"Approved","OW008"
"2023-05-17 21:00",18.7828953560372,"Approved","OW008"
"2023-05-17 22:00",18.7818972136223,"Approved","OW008"
"2023-05-17 23:00",18.7808990712074,"Approved","OW008"
"2023-05-18 00:00",18.7819009287926,"Approved","OW008"
"2023-05-18 01:00",18.7839027863777,"Approved","OW008"
"2023-05-18 02:00",18.7829046439628,"Approved","OW008"
"2023-05-18 03:00",18.785906501548,"Approved","OW008"
"2023-05-18 04:00",18.7909083591331,"Approved","OW008"
"2023-05-18 05:00",18.7959102167183,"Approved","OW008"
"2023-05-18 06:00",18.7989120743034,"Approved","OW008"
"2023-05-18 07:00",18.8019139318885,"Approved","OW008"
"2023-05-18 08:00",18.8039157894737,"Approved","OW008"
"2023-05-18 09:00",18.8009176470588,"Approved","OW008"
"2023-05-18 10:00",18.799919504644,"Approved","OW008"
"2023-05-18 11:00",18.7969213622291,"Approved","OW008"
"2023-05-18 12:00",18.7979232198142,"Approved","OW008"
"2023-05-18 13:00",18.7989250773994,"Approved","OW008"
"2023-05-18 14:00",18.7999269349845,"Approved","OW008"
"2023-05-18 15:00",18.8039287925697,"Approved","OW008"
"2023-05-18 16:00",18.8069306501548,"Approved","OW008"
"2023-05-18 17:00",18.8039325077399,"Approved","OW008"
"2023-05-18 18:00",18.8059343653251,"Approved","OW008"
"2023-05-18 19:00",18.8059362229102,"Approved","OW008"
"2023-05-18 20:00",18.8079380804954,"Approved","OW008"
"2023-05-18 21:00",18.8099399380805,"Approved","OW008"
"2023-05-18 22:00",18.8129417956656,"Approved","OW008"
"2023-05-18 23:00",18.8109436532508,"Approved","OW008"
"2023-05-19 00:00",18.8069455108359,"Approved","OW008"
"2023-05-19 01:00",18.8119473684211,"Approved","OW008"
"2023-05-19 02:00",18.8109492260062,"Approved","OW008"
"2023-05-19 03:00",18.8119510835913,"Approved","OW008"
"2023-05-19 04:00",18.8179529411765,"Approved","OW008"
"2023-05-19 05:00",18.8219547987616,"Approved","OW008"
"2023-05-19 06:00",18.8229566563467,"Approved","OW008"
"2023-05-19 07:00",18.8249585139319,"Approved","OW008"
"2023-05-19 08:00",18.823960371517,"Approved","OW008"
"2023-05-19 09:00",18.8249622291022,"Approved","OW008"
"2023-05-19 10:00",18.8259640866873,"Approved","OW008"
"2023-05-19 11:00",18.8269659442724,"Approved","OW008"
"2023-05-19 12:00",18.8289678018576,"Approved","OW008"
"2023-05-19 13:00",18.8299696594427,"Approved","OW008"
"2023-05-19 14:00",18.8319715170279,"Approved","OW008"
"2023-05-19 15:00",18.829973374613,"Approved","OW008"
"2023-05-19 16:00",18.8259752321981,"Approved","OW008"
"2023-05-19 17:00",18.8249770897833,"Approved","OW008"
"2023-05-19 18:00",18.8219789473684,"Approved","OW008"
"2023-05-19 19:00",18.8159808049536,"Approved","OW008"
"2023-05-19 20:00",18.8129826625387,"Approved","OW008"
"2023-05-19 21:00",18.8109845201238,"Approved","OW008"
"2023-05-19 22:00",18.811986377709,"Approved","OW008"
"2023-05-19 23:00",18.8079882352941,"Approved","OW008"
"2023-05-20 00:00",18.8049900928793,"Approved","OW008"
"2023-05-20 01:00",18.8109919504644,"Approved","OW008"
"2023-05-20 02:00",18.8129938080495,"Approved","OW008"
"2023-05-20 03:00",18.8129956656347,"Approved","OW008"
"2023-05-20 04:00",18.8209975232198,"Approved","OW008"
"2023-05-20 05:00",18.826999380805,"Approved","OW008"
"2023-05-20 06:00",18.8260012383901,"Approved","OW008"
"2023-05-20 07:00",18.8300030959752,"Approved","OW008"
"2023-05-20 08:00",18.8320049535604,"Approved","OW008"
"2023-05-20 09:00",18.8310068111455,"Approved","OW008"
"2023-05-20 10:00",18.8330086687307,"Approved","OW008"
"2023-05-20 11:00",18.8360105263158,"Approved","OW008"
"2023-05-20 12:00",18.8350123839009,"Approved","OW008"
"2023-05-20 13:00",18.8380142414861,"Approved","OW008"
"2023-05-20 14:00",18.8410160990712,"Approved","OW008"
"2023-05-20 15:00",18.8420179566563,"Approved","OW008"
"2023-05-20 16:00",18.8380198142415,"Approved","OW008"
"2023-05-20 17:00",18.8340216718266,"Approved","OW008"
"2023-05-20 18:00",18.8310235294118,"Approved","OW008"
"2023-05-20 19:00",18.8300253869969,"Approved","OW008"
"2023-05-20 20:00",18.831027244582,"Approved","OW008"
"2023-05-20 21:00",18.8290291021672,"Approved","OW008"
"2023-05-20 22:00",18.8280309597523,"Approved","OW008"
"2023-05-20 23:00",18.8260328173375,"Approved","OW008"
"2023-05-21 00:00",18.8280346749226,"Approved","OW008"
"2023-05-21 01:00",18.8310365325077,"Approved","OW008"
"2023-05-21 02:00",18.8320383900929,"Approved","OW008"
"2023-05-21 03:00",18.834040247678,"Approved","OW008"
"2023-05-21 04:00",18.8370421052632,"Approved","OW008"
"2023-05-21 05:00",18.8410439628483,"Approved","OW008"
"2023-05-21 06:00",18.8460458204334,"Approved","OW008"
"2023-05-21 07:00",18.8460476780186,"Approved","OW008"
"2023-05-21 08:00",18.8470495356037,"Approved","OW008"
"2023-05-21 09:00",18.8480513931889,"Approved","OW008"
"2023-05-21 10:00",18.850053250774,"Approved","OW008"
"2023-05-21 11:00",18.8500551083591,"Approved","OW008"
"2023-05-21 12:00",18.8530569659443,"Approved","OW008"
"2023-05-21 13:00",18.8540588235294,"Approved","OW008"
"2023-05-21 14:00",18.8560606811146,"Approved","OW008"
"2023-05-21 15:00",18.8560625386997,"Approved","OW008"
"2023-05-21 16:00",18.8580643962848,"Approved","OW008"
"2023-05-21 17:00",18.85606625387,"Approved","OW008"
"2023-05-21 18:00",18.8550681114551,"Approved","OW008"
"2023-05-21 19:00",18.8530699690402,"Approved","OW008"
"2023-05-21 20:00",18.8510718266254,"Approved","OW008"
"2023-05-21 21:00",18.8480736842105,"Approved","OW008"
"2023-05-21 22:00",18.8500755417957,"Approved","OW008"
"2023-05-21 23:00",18.8490773993808,"Approved","OW008"
"2023-05-22 00:00",18.8450792569659,"Approved","OW008"
"2023-05-22 01:00",18.8500811145511,"Approved","OW008"
"2023-05-22 02:00",18.8490829721362,"Approved","OW008"
"2023-05-22 03:00",18.8510848297214,"Approved","OW008"
"2023-05-22 04:00",18.8530866873065,"Approved","OW008"
"2023-05-22 05:00",18.8540885448916,"Approved","OW008"
"2023-05-22 06:00",18.8560904024768,"Approved","OW008"
"2023-05-22 07:00",18.8570922600619,"Approved","OW008"
"2023-05-22 08:00",18.8580941176471,"Approved","OW008"
"2023-05-22 09:00",18.8570959752322,"Approved","OW008"
"2023-05-22 10:00",18.8600978328173,"Approved","OW008"
"2023-05-22 11:00",18.8620996904025,"Approved","OW008"
"2023-05-22 12:00",18.8611015479876,"Approved","OW008"
"2023-05-22 13:00",18.8611034055728,"Approved","OW008"
"2023-05-22 14:00",18.8641052631579,"Approved","OW008"
"2023-05-22 15:00",18.863107120743,"Approved","OW008"
"2023-05-22 16:00",18.8671089783282,"Approved","OW008"
"2023-05-22 17:00",18.8661108359133,"Approved","OW008"
"2023-05-22 18:00",18.8681126934985,"Approved","OW008"
"2023-05-22 19:00",18.8661145510836,"Approved","OW008"
"2023-05-22 20:00",18.8631164086687,"Approved","OW008"
"2023-05-22 21:00",18.8641182662539,"Approved","OW008"
"2023-05-22 22:00",18.862120123839,"Approved","OW008"
"2023-05-22 23:00",18.8621219814241,"Approved","OW008"
"2023-05-23 00:00",18.8641238390093,"Approved","OW008"
"2023-05-23 01:00",18.8631256965944,"Approved","OW008"
"2023-05-23 02:00",18.8641275541796,"Approved","OW008"
"2023-05-23 03:00",18.8631294117647,"Approved","OW008"
"2023-05-23 04:00",18.8651312693498,"Approved","OW008"
"2023-05-23 05:00",18.868133126935,"Approved","OW008"
"2023-05-23 06:00",18.8661349845201,"Approved","OW008"
"2023-05-23 07:00",18.8641368421053,"Approved","OW008"
"2023-05-23 08:00",18.8701386996904,"Approved","OW008"
"2023-05-23 09:00",18.8701405572755,"Approved","OW008"
"2023-05-23 10:00",18.8671424148607,"Approved","OW008"
"2023-05-23 11:00",18.8681442724458,"Approved","OW008"
"2023-05-23 12:00",18.871146130031,"Approved","OW008"
"2023-05-23 13:00",18.8701479876161,"Approved","OW008"
"2023-05-23 14:00",18.8731498452012,"Approved","OW008"
"2023-05-23 15:00",18.8741517027864,"Approved","OW008"
"2023-05-23 16:00",18.8731535603715,"Approved","OW008"
"2023-05-23 17:00",18.8731554179567,"Approved","OW008"
"2023-05-23 18:00",18.8721572755418,"Approved","OW008"
"2023-05-23 19:00",18.8681591331269,"Approved","OW008"
"2023-05-23 20:00",18.8671609907121,"Approved","OW008"
"2023-05-23 21:00",18.8631628482972,"Approved","OW008"
"2023-05-23 22:00",18.8611647058824,"Approved","OW008"
"2023-05-23 23:00",18.8601665634675,"Approved","OW008"
"2023-05-24 00:00",18.8601684210526,"Approved","OW008"
"2023-05-24 01:00",18.8651702786378,"Approved","OW008"
"2023-05-24 02:00",18.8651721362229,"Approved","OW008"
"2023-05-24 03:00",18.867173993808,"Approved","OW008"
"2023-05-24 04:00",18.8691758513932,"Approved","OW008"
"2023-05-24 05:00",18.8721777089783,"Approved","OW008"
"2023-05-24 06:00",18.8691795665635,"Approved","OW008"
"2023-05-24 07:00",18.8691814241486,"Approved","OW008"
"2023-05-24 08:00",18.8731832817337,"Approved","OW008"
"2023-05-24 09:00",18.8741851393189,"Approved","OW008"
"2023-05-24 10:00",18.873186996904,"Approved","OW008"
"2023-05-24 11:00",18.8751888544892,"Approved","OW008"
"2023-05-24 12:00",18.8751907120743,"Approved","OW008"
"2023-05-24 13:00",18.8791925696594,"Approved","OW008"
"2023-05-24 14:00",18.8821944272446,"Approved","OW008"
"2023-05-24 15:00",18.8801962848297,"Approved","OW008"
"2023-05-24 16:00",18.8761981424149,"Approved","OW008"
"2023-05-24 17:00",18.8772,"Approved","OW008"
"2023-05-24 18:00",18.8782018575851,"Approved","OW008"
"2023-05-24 19:00",18.8732037151703,"Approved","OW008"